Location: Ajisawe
(8.4333°N, 4.3833°E)
Time: 06:42:12
(UTC+00:00)

A-11 Canister half - Pass Details

Date: 24 April 2021
Orbit: 1514 x 1685 km, 47.2° (Epoch: 12 May)

Event Time Altitude Azimuth Distance (km) Brightness Sun altitude
Rises 18:24:58 0° 250° (WSW) 4,653 12.5 -8.8°
Reaches altitude 10° 18:28:36 10° 261° (W) 3,667 12.2 -9.6°
Maximum altitude 18:36:04 28° 316° (NW) 2,560 10.9 -11.4°
Drops below altitude 10° 18:43:40 10° 12° (NNE) 3,703 11.1 -13.2°
Sets 18:47:24 0° 24° (NNE) 4,707 11.5 -14.1°
